Location: Bailleul
(50.3375°N, 2.8513°E)
Time: 12:32:55
(UTC+00:00)

SL-14 R/B - Pass Details

Date: 16 June 2021
Orbit: 517 x 554 km, 82.4° (Epoch: 29 July)

Event Time Altitude Azimuth Distance (km) Brightness Sun altitude
Exits shadow 21:16:33 12° 152° (SSE) 1,722 5.2 -8.9°
Maximum altitude 21:19:49 31° 91° (E) 978 4.3 -9.2°
Drops below altitude 10° 21:23:26 10° 28° (NNE) 1,841 6.4 -9.5°
Sets 21:25:45 0° 19° (NNE) 2,736 7.5 -9.7°
